Kearney, NE

11:18 PM CDT on May 21, 2018 (GMT -0500)
Kearney Municipal

Weather History for KEAR - October, 2011

Change the Weather History Date:

Thursday, October 27, 2011

  Actual Average Record
Temperature  
Mean Temperature 40 °F 47 °F  
Max Temperature 54 °F 60 °F 83 °F (1938)
Min Temperature 25 °F 33 °F 6 °F (1997)
Degree Days  
Heating Degree Days 25 18  
Month to date heating degree days 366  
Since 1 July heating degree days 515  
Cooling Degree Days 0 0  
Month to date cooling degree days 4  
Year to date cooling degree days 869  
Moisture  
Dew Point 22 °F    
Average Humidity 50    
Maximum Humidity 75    
Minimum Humidity 24    
Precipitation  
Precipitation 0.00 in - 0.75 in (1980)
Sea Level Pressure  
Sea Level Pressure 30.16 in    
Wind  
Wind Speed 7 mph (West)    
Max Wind Speed 12 mph    
Max Gust Speed 17 mph    
Visibility 10 miles    
Events      
T = Trace of Precipitation, MM = Missing Value Source: NWS Daily Summary

Daily Weather History Graph

Daily Weather History Graph

Search for Another Location

Airport or City:

Astronomy

Oct. 27, 2011 Rise Set
Actual Time 8:00 AM CDT 6:38 PM CDT
Civil Twilight 7:32 AM CDT 7:06 PM CDT
Nautical Twilight 7:00 AM CDT 7:39 PM CDT
Astronomical Twilight 6:28 AM CDT 8:10 PM CDT
Moon 9:06 AM CDT (10/27) 7:08 PM CDT (10/27)
Length of Visible Light 11h 34m
Length of Day
10h 38m
New Moon, 1% of the Moon is Illuminated
Oct 27
New Moon
Nov 2
First Quarter
Nov 10
Full
Nov 18
Last Quarter
Nov 25
New

Hourly Weather History & Observations

Time (CDT) Temp. Windchill Dew Point Humidity Pressure Visibility Wind Dir Wind Speed Gust Speed Precip Events Conditions
12:15 AM 37.4 °F 32.1 °F 26.6 °F 65% 30.19 in 10.0 mi NW 6.9 mph - N/A   Partly Cloudy
12:35 AM 35.6 °F 29.9 °F 26.6 °F 70% 30.19 in 10.0 mi WNW 6.9 mph - N/A   Clear
12:55 AM 35.6 °F 29.9 °F 26.6 °F 70% 30.20 in 10.0 mi WNW 6.9 mph - N/A   Clear
1:15 AM 33.8 °F 27.7 °F 26.6 °F 75% 30.20 in 10.0 mi WNW 6.9 mph - N/A   Clear
1:35 AM 33.8 °F 27.7 °F 24.8 °F 70% 30.20 in 10.0 mi WNW 6.9 mph - N/A   Clear
1:55 AM 32.0 °F 25.6 °F 24.8 °F 75% 30.19 in 10.0 mi WNW 6.9 mph - N/A   Clear
2:15 AM 30.2 °F 22.6 °F 24.8 °F 80% 30.19 in 10.0 mi WNW 8.1 mph - N/A   Clear
2:55 AM 30.2 °F 22.6 °F 23.0 °F 75% 30.17 in 10.0 mi WNW 8.1 mph - N/A   Clear
3:15 AM 30.2 °F 21.9 °F 21.2 °F 69% 30.18 in 10.0 mi WNW 9.2 mph - N/A   Clear
3:35 AM 30.2 °F 21.9 °F 23.0 °F 75% 30.17 in 10.0 mi WNW 9.2 mph - N/A   Clear
3:55 AM 28.4 °F 20.4 °F 21.2 °F 74% 30.17 in 10.0 mi WNW 8.1 mph - N/A   Clear
4:15 AM 28.4 °F 20.4 °F 21.2 °F 74% 30.16 in 10.0 mi WNW 8.1 mph - N/A   Clear
4:35 AM 28.4 °F 20.4 °F 21.2 °F 74% 30.15 in 10.0 mi WNW 8.1 mph - N/A   Clear
4:55 AM 28.4 °F 21.2 °F 21.2 °F 74% 30.15 in 10.0 mi WNW 6.9 mph - N/A   Clear
5:15 AM 28.4 °F 22.2 °F 21.2 °F 74% 30.16 in 10.0 mi NW 5.8 mph - N/A   Clear
5:35 AM 28.4 °F 20.4 °F 19.4 °F 69% 30.16 in 10.0 mi WNW 8.1 mph - N/A   Clear
5:55 AM 28.4 °F 21.2 °F 21.2 °F 74% 30.16 in 10.0 mi NW 6.9 mph - N/A   Clear
6:15 AM 26.6 °F 18.2 °F 19.4 °F 74% 30.17 in 10.0 mi WNW 8.1 mph - N/A   Clear
6:35 AM 26.6 °F 18.2 °F 19.4 °F 74% 30.17 in 10.0 mi WNW 8.1 mph - N/A   Clear
6:55 AM 26.6 °F 18.2 °F 19.4 °F 74% 30.17 in 10.0 mi WNW 8.1 mph - N/A   Clear
7:15 AM 26.6 °F 20.0 °F 19.4 °F 74% 30.17 in 10.0 mi West 5.8 mph - N/A   Clear
7:35 AM 28.4 °F - 21.2 °F 74% 30.17 in 10.0 mi Calm Calm - N/A   Clear
7:55 AM 28.4 °F 24.6 °F 21.2 °F 74% 30.17 in 10.0 mi West 3.5 mph - N/A   Clear
8:15 AM 26.6 °F 21.2 °F 15.8 °F 64% 30.18 in 10.0 mi WSW 4.6 mph - N/A   Clear
8:35 AM 28.4 °F 21.2 °F 19.4 °F 69% 30.18 in 10.0 mi WSW 6.9 mph - N/A   Clear
8:55 AM 28.4 °F 23.3 °F 21.2 °F 74% 30.18 in 10.0 mi WSW 4.6 mph - N/A   Clear
9:15 AM 32.0 °F 27.5 °F 21.2 °F 64% 30.19 in 10.0 mi West 4.6 mph - N/A   Clear
9:35 AM 33.8 °F 30.8 °F 24.8 °F 70% 30.20 in 10.0 mi West 3.5 mph - N/A   Clear
9:55 AM 37.4 °F - 26.6 °F 65% 30.20 in 10.0 mi Calm Calm - N/A   Clear
10:15 AM 39.2 °F 37.0 °F 26.6 °F 61% 30.20 in 10.0 mi WSW 3.5 mph - N/A   Clear
10:35 AM 41.0 °F 39.0 °F 26.6 °F 57% 30.20 in 10.0 mi WSW 3.5 mph - N/A   Clear
10:55 AM 44.6 °F 41.4 °F 28.4 °F 53% 30.20 in 10.0 mi WSW 5.8 mph - N/A   Clear
11:15 AM 44.6 °F 40.7 °F 26.6 °F 49% 30.20 in 10.0 mi SW 6.9 mph - N/A   Clear
11:35 AM 46.4 °F 42.4 °F 26.6 °F 46% 30.20 in 10.0 mi West 8.1 mph - N/A   Clear
11:55 AM 46.4 °F 41.9 °F 24.8 °F 43% 30.20 in 10.0 mi WSW 9.2 mph - N/A   Clear
12:15 PM 46.4 °F 42.9 °F 23.0 °F 40% 30.20 in 10.0 mi WSW 6.9 mph - N/A   Clear
12:35 PM 48.2 °F - 23.0 °F 37% 30.19 in 10.0 mi West 8.1 mph - N/A   Clear
12:55 PM 48.2 °F - 24.8 °F 40% 30.19 in 10.0 mi SW 8.1 mph 16.1 mph N/A   Clear
1:15 PM 48.2 °F - 24.8 °F 40% 30.18 in 10.0 mi WSW 4.6 mph - N/A   Clear
1:35 PM 50.0 °F - 23.0 °F 35% 30.17 in 10.0 mi West 8.1 mph - N/A   Clear
1:55 PM 51.8 °F - 23.0 °F 33% 30.15 in 10.0 mi WSW 5.8 mph - N/A   Clear
2:15 PM 51.8 °F - 21.2 °F 30% 30.14 in 10.0 mi WSW 3.5 mph - N/A   Clear
2:35 PM 51.8 °F - 19.4 °F 28% 30.13 in 10.0 mi WNW 8.1 mph - N/A   Clear
2:55 PM 51.8 °F - 19.4 °F 28% 30.12 in 10.0 mi WNW 3.5 mph 17.3 mph N/A   Clear
3:35 PM 51.8 °F - 19.4 °F 28% 30.11 in 10.0 mi West 11.5 mph - N/A   Clear
3:55 PM 53.6 °F - 17.6 °F 24% 30.11 in 10.0 mi WSW 11.5 mph - N/A   Clear
4:15 PM 51.8 °F - 17.6 °F 26% 30.11 in 10.0 mi West 9.2 mph 17.3 mph N/A   Clear
4:35 PM 53.6 °F - 17.6 °F 24% 30.11 in 10.0 mi West 10.4 mph - N/A   Clear
4:55 PM 51.8 °F - 17.6 °F 26% 30.10 in 10.0 mi SW 10.4 mph - N/A   Clear
5:15 PM 51.8 °F - 17.6 °F 26% 30.10 in 10.0 mi West 10.4 mph - N/A   Clear
5:35 PM 51.8 °F - 17.6 °F 26% 30.10 in 10.0 mi WSW 6.9 mph - N/A   Clear
5:55 PM 51.8 °F - 19.4 °F 28% 30.10 in 10.0 mi WSW 6.9 mph - N/A   Clear
6:15 PM 50.0 °F - 19.4 °F 30% 30.11 in 10.0 mi WSW 6.9 mph - N/A   Clear
6:35 PM 48.2 °F - 23.0 °F 37% 30.11 in 10.0 mi SW 9.2 mph - N/A   Clear
7:15 PM 48.2 °F - 23.0 °F 37% 30.12 in 10.0 mi SW 8.1 mph - N/A   Clear
7:35 PM 46.4 °F 42.4 °F 24.8 °F 43% 30.13 in 10.0 mi SW 8.1 mph - N/A   Clear
7:55 PM 46.4 °F 41.9 °F 24.8 °F 43% 30.14 in 10.0 mi SW 9.2 mph - N/A   Clear
8:15 PM 44.6 °F 39.7 °F 23.0 °F 43% 30.13 in 10.0 mi SSW 9.2 mph - N/A   Clear
8:35 PM 39.2 °F 34.2 °F 23.0 °F 52% 30.13 in 10.0 mi SSW 6.9 mph - N/A   Clear
8:55 PM 41.0 °F 35.8 °F 23.0 °F 49% 30.13 in 10.0 mi SW 8.1 mph - N/A   Clear
9:15 PM 39.2 °F 33.6 °F 23.0 °F 52% 30.13 in 10.0 mi SW 8.1 mph - N/A   Clear
9:35 PM 39.2 °F 34.2 °F 23.0 °F 52% 30.14 in 10.0 mi SW 6.9 mph - N/A   Clear
9:55 PM 39.2 °F 33.0 °F 23.0 °F 52% 30.14 in 10.0 mi SW 9.2 mph - N/A   Clear
10:15 PM 39.2 °F 33.0 °F 23.0 °F 52% 30.14 in 10.0 mi SW 9.2 mph - N/A   Clear
10:35 PM 39.2 °F 33.0 °F 23.0 °F 52% 30.15 in 10.0 mi SW 9.2 mph - N/A   Clear
10:55 PM 39.2 °F 33.0 °F 23.0 °F 52% 30.15 in 10.0 mi SW 9.2 mph - N/A   Clear
11:15 PM 39.2 °F 33.0 °F 21.2 °F 49% 30.16 in 10.0 mi SW 9.2 mph - N/A   Clear
11:35 PM 39.2 °F 32.5 °F 21.2 °F 49% 30.15 in 10.0 mi SW 10.4 mph - N/A   Clear
11:55 PM 37.4 °F 32.1 °F 21.2 °F 52% 30.15 in 10.0 mi WSW 6.9 mph - N/A   Clear